カタログに戻る

ATLAS AGENA D R/B

運用中GEO
NORAD 4511·ROCKET BODY·🇺🇸 United States

打ち上げ Jun 19, 1970 から Cape Canaveral Space Force Station

Loading…

TLE

最新Source: Space-Track

元期: Sep 13, 2026, 14:27 UTC

1 04511U 70046B   26256.60208619  .00000010  00000-0  00000-0 0  9992
2 04511   1.9205  82.9536 0030709 310.8566  49.6236  1.00439986 26447

AllMySatでATLAS AGENA D R/Bをリアルタイム追跡

Download on the App Store